DW2144 Weather Reports


Display with metric or nautical units.
time (UTC)temp
F
wind
direction
speed
MPH
gust
MPH
rain 1hr
in
rain 24hr
in
rain mn
in
humidity
%
barometer
mb
20260508021530 65 327 0.0 1.0 0.00 0.00 0.00 73 1014.3
20260508020031 66 327 0.0 1.0 0.00 0.00 0.00 73 1014.4
20260508014536 67 327 0.0 3.0 0.00 0.00 0.00 71 1014.4
20260508013028 68 328 0.0 3.0 0.00 0.00 0.00 70 1014.4
20260508011528 68 328 0.0 3.0 0.00 0.00 0.00 70 1014.4
20260508010041 69 329 0.0 3.0 0.00 0.00 0.00 70 1014.5
20260508004531 70 316 0.0 5.0 0.00 0.00 0.00 68 1014.6
20260508003027 70 323 0.0 4.0 0.00 0.00 0.00 68 1014.6
20260508001525 71 338 0.0 6.0 0.00 0.00 0.00 67 1014.5
20260508000024 72 346 0.0 4.0 0.00 0.00 0.00 67 1014.4
20260507234524 72 326 0.0 8.0 0.00 0.00 0.00 68 1014.4
20260507233022 73 329 0.0 3.0 0.00 0.00 0.00 69 1014.6
20260507231522 73 17 0.0 5.0 0.00 0.00 0.00 68 1014.7
20260507230025 73 10 0.0 3.0 0.00 0.00 0.00 69 1014.8
20260507224517 73 5 0.0 0.0 0.00 0.00 0.00 68 1015.0
20260507223015 73 9 0.0 1.0 0.00 0.00 0.00 69 1015.2
20260507221512 73 328 0.0 1.0 0.00 0.00 0.00 70 1015.4
20260507220011 72 327 0.0 2.0 0.00 0.00 0.00 70 1015.5
20260507214513 72 330 0.0 3.0 0.00 0.00 0.00 69 1015.7
20260507213006 72 333 0.0 1.0 0.00 0.00 0.00 69 1016.1
20260507211504 72 329 0.0 2.0 0.00 0.00 0.00 71 1016.3
20260507210105 71 355 0.0 3.0 0.00 0.00 0.00 71 1016.2
20260507204559 69 360 0.0 2.0 0.00 0.00 0.00 74 1016.7
20260507203057 68 360 0.0 4.0 0.00 0.00 0.00 76 1016.8
20260507201548 67 335 0.0 3.0 0.00 0.00 0.00 76 1017.0
20260507200049 67 327 0.0 2.0 0.00 0.00 0.00 78 1017.1
20260507194547 66 327 0.0 3.0 0.00 0.00 0.00 78 1017.2
20260507193040 65 331 0.0 2.0 0.00 0.00 0.00 81 1017.4
20260507191536 64 329 0.0 3.0 0.00 0.00 0.00 82 1017.5
20260507190033 62 317 0.0 4.0 0.00 0.00 0.00 84 1017.7
20260507184528 60 282 0.0 0.0 0.00 0.00 0.00 85 1017.8
20260507183039 59 282 0.0 1.0 0.00 0.00 0.00 86 1017.9
20260507181521 58 282 0.0 1.0 0.00 0.00 0.00 87 1017.9
20260507180020 58 282 0.0 1.0 0.00 0.00 0.00 87 1018.0
20260507174518 57 282 0.0 1.0 0.00 0.00 0.00 87 1018.0
20260507173014 56 282 0.0 0.0 0.00 0.00 0.00 86 1018.0
20260507171512 55 282 0.0 0.0 0.00 0.00 0.00 87 1018.1
20260507170010 55 282 0.0 0.0 0.00 0.00 0.00 86 1018.2
20260507164508 54 282 0.0 0.0 0.00 0.00 0.00 86 1018.1
20260507163006 54 282 0.0 0.0 0.00 0.00 0.00 86 1018.2
20260507161506 54 282 0.0 0.0 0.00 0.00 0.00 85 1018.2
20260507160012 53 282 0.0 0.0 0.00 0.00 0.00 86 1018.3
20260507154503 53 282 0.0 0.0 0.00 0.00 0.00 86 1018.1
20260507153004 53 282 0.0 0.0 0.00 0.00 0.00 85 1018.2
20260507151502 53 282 0.0 0.0 0.00 0.00 0.00 85 1018.2
20260507150003 53 282 0.0 0.0 0.00 0.00 0.00 85 1018.3
20260507144600 53 282 0.0 0.0 0.00 0.00 0.00 85 1018.3
20260507143059 53 282 0.0 0.0 0.00 0.00 0.00 85 1018.2
20260507141600 53 282 0.0 0.0 0.00 0.00 0.00 86 1018.1
20260507140106 53 282 0.0 0.0 0.00 0.00 0.00 86 1017.9
20260507134556 53 282 0.0 0.0 0.00 0.00 0.00 86 1017.6
20260507133101 53 282 0.0 0.0 0.00 0.00 0.00 86 1017.4
20260507131554 53 282 0.0 0.0 0.00 0.00 0.00 86 1017.5
20260507130105 53 282 0.0 0.0 0.00 0.00 0.00 86 1017.3
20260507124632 53 282 0.0 0.0 0.00 0.00 0.00 86 1017.4
20260507123053 53 282 0.0 0.0 0.00 0.00 0.00 86 1017.3
20260507121552 53 282 0.0 0.0 0.00 0.00 0.00 87 1017.3
20260507120052 53 282 0.0 0.0 0.00 0.00 0.00 87 1017.3
20260507114609 53 282 0.0 0.0 0.00 0.00 0.00 87 1017.5
20260507113053 53 282 0.0 0.0 0.00 0.00 0.00 87 1017.5
20260507111548 53 282 0.0 0.0 0.00 0.00 0.00 87 1017.6
20260507110049 53 282 0.0 0.0 0.00 0.00 0.00 87 1017.6
20260507104553 53 282 0.0 0.0 0.00 0.00 0.00 87 1017.6
20260507103047 53 282 0.0 0.0 0.00 0.00 0.00 87 1017.7
20260507101549 53 282 0.0 0.0 0.00 0.00 0.00 87 1017.7
20260507100046 53 282 0.0 0.0 0.00 0.00 0.00 87 1017.7
20260507094545 53 282 0.0 0.0 0.00 0.00 0.00 87 1017.7
20260507093046 53 282 0.0 0.0 0.00 0.00 0.00 87 1017.8
20260507091545 53 282 0.0 0.0 0.00 0.00 0.00 87 1017.9
20260507090043 53 282 0.0 0.0 0.00 0.00 0.00 87 1018.0
20260507084542 53 282 0.0 1.0 0.00 0.00 0.00 87 1018.0
20260507083041 54 282 0.0 0.0 0.00 0.00 0.00 87 1017.9
20260507081541 54 282 0.0 0.0 0.00 0.00 0.00 87 1017.9
20260507080039 54 282 0.0 0.0 0.00 0.00 0.00 87 1017.8
20260507074544 54 282 0.0 0.0 0.00 0.00 0.00 87 1017.6
20260507073043 53 282 0.0 0.0 0.00 0.00 0.00 87 1017.8
20260507071536 53 282 0.0 0.0 0.00 0.00 0.00 87 1017.7
20260507070034 53 282 0.0 0.0 0.00 0.00 0.00 86 1017.6
20260507064530 53 282 0.0 0.0 0.00 0.00 0.00 86 1017.5
20260507063040 53 282 0.0 0.0 0.00 0.00 0.00 86 1017.4
20260507061529 54 282 0.0 0.0 0.00 0.00 0.00 85 1017.3
20260507060040 55 282 0.0 0.0 0.00 0.00 0.00 84 1017.3
20260507054523 55 282 0.0 0.0 0.00 0.00 0.00 85 1017.2
20260507053024 56 282 0.0 0.0 0.00 0.00 0.00 83 1017.1
20260507051523 57 282 0.0 0.0 0.00 0.00 0.00 83 1017.0
20260507050027 57 282 0.0 0.0 0.00 0.00 0.00 82 1017.0
20260507044522 58 282 0.0 0.0 0.00 0.00 0.00 81 1016.9
20260507043022 59 282 0.0 1.0 0.00 0.00 0.00 80 1016.7
20260507041521 60 282 0.0 0.0 0.00 0.00 0.00 80 1016.7
20260507040020 60 282 0.0 1.0 0.00 0.00 0.00 78 1016.6
20260507034530 61 282 0.0 3.0 0.00 0.00 0.00 77 1016.4
20260507033020 63 282 0.0 0.0 0.00 0.00 0.00 75 1016.4
20260507031519 64 281 0.0 0.0 0.00 0.00 0.00 73 1016.2
20260507030019 65 281 0.0 3.0 0.00 0.00 0.00 71 1016.2
20260507024522 66 316 0.0 1.0 0.00 0.00 0.00 69 1016.0
20260507023022 67 316 0.0 3.0 0.00 0.00 0.00 67 1015.8